Lancaster, PA

10:38 AM EST on February 21, 2018 (GMT -0500)
Lancaster

Weather History for KLNS - January, 2008

Change the Weather History Date:

Wednesday, January 16, 2008

  Actual Average Record
Temperature  
Mean Temperature 32 °F -  
Max Temperature 37 °F 38 °F 53 °F (1987)
Min Temperature 27 °F 20 °F -2 °F (1977)
Degree Days  
Heating Degree Days 33    
Moisture  
Dew Point 22 °F    
Average Humidity 69    
Maximum Humidity 81    
Minimum Humidity 48    
Precipitation  
Precipitation 0.00 in - - ()
Sea Level Pressure  
Sea Level Pressure 30.27 in    
Wind  
Wind Speed 8 mph (WNW)    
Max Wind Speed 15 mph    
Max Gust Speed -    
Visibility 10 miles    
Events      
Averages and records for this station are not official NWS values.
T = Trace of Precipitation, MM = Missing Value Source: NWS Daily Summary

Daily Weather History Graph

Daily Weather History Graph

Search for Another Location

Airport or City:

Trip Planner

Search our weather history database for the weather conditions in past years. The results will help you decide how hot, cold, wet, or windy it might be!

Date:

Astronomy

Jan. 16, 2008 Rise Set
Actual Time 7:25 AM EST 5:04 PM EST
Civil Twilight 6:55 AM EST 5:34 PM EST
Nautical Twilight 6:22 AM EST 6:07 PM EST
Astronomical Twilight 5:49 AM EST 6:40 PM EST
Moon 11:31 AM EST (1/16) 1:11 AM EST (1/16)
Length of Visible Light 10h 38m
Length of Day
9h 39m
First Quarter, 60% of the Moon is Illuminated
Jan 16
First Quarter
Jan 22
Full
Jan 30
Last Quarter
Feb 6
New
Feb 13
First Quarter

Hourly Weather History & Observations

Time (EST) Temp. Windchill Dew Point Humidity Pressure Visibility Wind Dir Wind Speed Gust Speed Precip Events Conditions
12:53 AM 28.0 °F 18.6 °F 21.0 °F 75% 30.08 in 10.0 mi West 10.4 mph - N/A   Clear
1:53 AM 27.0 °F 19.5 °F 21.0 °F 78% 30.10 in 10.0 mi West 6.9 mph - N/A   Mostly Cloudy
2:53 AM 28.9 °F 20.4 °F 23.0 °F 78% 30.12 in 10.0 mi WNW 9.2 mph - N/A   Mostly Cloudy
3:53 AM 28.9 °F 20.4 °F 23.0 °F 78% 30.15 in 10.0 mi West 9.2 mph - N/A   Partly Cloudy
4:53 AM 30.0 °F 21.1 °F 23.0 °F 75% 30.17 in 10.0 mi West 10.4 mph - N/A   Scattered Clouds
5:53 AM 30.9 °F 24.3 °F 24.1 °F 76% 30.19 in 10.0 mi West 6.9 mph - N/A   Overcast
6:53 AM 30.9 °F 22.8 °F 23.0 °F 72% 30.22 in 10.0 mi West 9.2 mph - N/A   Overcast
7:53 AM 30.9 °F 21.7 °F 24.1 °F 76% 30.25 in 10.0 mi West 11.5 mph - N/A   Overcast
8:53 AM 32.0 °F 21.6 °F 23.0 °F 69% 30.30 in 10.0 mi West 15.0 mph - N/A   Overcast
9:53 AM 34.0 °F 25.0 °F 23.0 °F 64% 30.31 in 10.0 mi WNW 12.7 mph - N/A   Overcast
10:53 AM 36.0 °F 26.7 °F 21.9 °F 57% 30.29 in 10.0 mi NW 15.0 mph - N/A   Partly Cloudy
11:53 AM 36.0 °F 27.1 °F 21.9 °F 57% 30.30 in 10.0 mi WNW 13.8 mph - N/A   Partly Cloudy
1:53 PM 37.0 °F 30.4 °F 21.0 °F 52% 30.28 in 10.0 mi North 9.2 mph - N/A   Clear
2:53 PM 37.9 °F 32.1 °F 19.9 °F 48% 30.28 in 10.0 mi NW 8.1 mph - N/A   Clear
3:53 PM 37.9 °F 34.4 °F 19.9 °F 48% 30.30 in 10.0 mi North 4.6 mph - N/A   Clear
4:53 PM 34.0 °F 28.8 °F 21.0 °F 59% 30.31 in 10.0 mi NE 5.8 mph - N/A   Clear
5:53 PM 32.0 °F - 21.0 °F 64% 30.34 in 10.0 mi Calm Calm - N/A   Clear
6:53 PM 30.0 °F 26.5 °F 21.9 °F 72% 30.36 in 10.0 mi NW 3.5 mph - N/A   Clear
7:53 PM 30.0 °F - 21.9 °F 72% 30.36 in 10.0 mi Calm Calm - N/A   Clear
8:53 PM 28.9 °F - 21.9 °F 75% 30.36 in 10.0 mi Calm Calm - N/A   Clear
9:53 PM 28.0 °F - 21.9 °F 78% 30.38 in 10.0 mi Calm Calm - N/A   Clear
10:53 PM 27.0 °F 23.0 °F 21.9 °F 81% 30.40 in 9.0 mi East 3.5 mph - N/A   Clear
11:53 PM 27.0 °F - 21.9 °F 81% 30.39 in 8.0 mi Calm Calm - N/A   Clear